www.pogodaiklimat.ru

Погода и климат >> Архив погоды >> Индия >> Kozhikode


ПОГОДА в Kozhikode

  • Прогноз погоды в Kozhikode
  • Монитор погоды в Kozhikode
  • Климат города

АРХИВ ПОГОДЫ в Kozhikode

Время (UTC), дата Ветер
(напр.,м/с)
 
Видим.   Явления Облачность Т
(С)
Тd
(С)
f
(%)
Тe
(С)
Тes
(С)
Комфортность P
(гПа)
Po
(гПа)
Тmin
(С)
Tmax
(С)
R
(мм)
R24
(мм)
S
(см)
00 14.01 штиль 0 4000 м 3/0
[Ci sp]
+25.0 +23.5 91 +34 +34 очень
душно
1011.7 1012.0
03 14.01 штиль 0 4000 м 1/0
[Ci sp]
+25.8 +21.6 78 +33 +38 очень
душно
1014.1 1014.0 +24.1 +33.7
06 14.01 ЮЗ 2 10 км 1/1 600 м
[Sc]
+32.0 +20.6 51 +39 +52 опасность
солнечного
удара
1013.4 1013.0
09 14.01 ЮЗ 2 10 км 1/0
[Ci sp]
+32.8 +22.6 55 +42 +53 опасность
перегрева
1009.8 1010.0
12 14.01 З 2 10 км 3/1 600 м
[Sc diur, vesp Ci sp]
+31.6 +22.6 59 +41 +42 опасность
перегрева
1009.0 1009.0 +34.1
15 14.01 З 1 4000 м 3/0
[Ci sp]
+27.8 +22.8 74 +37 +37 очень
душно
1012.0 1012.0
18 14.01 штиль 0 4000 м 3/0
[Ci sp]
+25.4 +22.4 83 +33 +33 очень
душно
1013.0 1013.0
21 14.01 штиль 0 4000 м 3/0
[Ci sp]
+24.0 +21.3 85 +30 +30 очень
душно
1012.1 1012.0
00 15.01 штиль 0 4000 м 3/0
[Ci sp]
+22.8 +20.0 84 +29 +29 очень
душно
1011.8 1012.0
03 15.01 В 2 10 км 1/0
[Ci sp]
+24.4 +18.1 68 +29 +33 душно 1014.6 1015.0 +21.6 +34.1
06 15.01 З 2 10 км 3/0
[Ci sp]
+32.4 +19.3 46 +38 +53 опасность
солнечного
удара
1013.9 1014.0
09 15.01 З 2 10 км 1/0
[Ci sp]
+32.8 +21.3 51 +41 +53 опасность
перегрева
1010.1 1010.0
12 15.01 З 2 10 км 4/0
[Ci sp]
+31.8 +24.4 65 +44 +45 опасность
перегрева
1008.7 1009.0 +33.7
15 15.01 штиль 0 4000 м 3/0
[Ci sp]
+28.0 +24.6 82 +40 +40 очень
душно
1011.1 1011.0
18 15.01 штиль 0 4000 м 1/0
[Ci sp]
+26.0 +24.0 89 +36 +36 очень
душно
1011.8 1012.0
21 15.01 штиль 0 4000 м 1/0
[Ci sp]
+25.0 +22.9 88 +33 +33 очень
душно
1010.6 1011.0
00 16.01 штиль 0 4000 м 1/0
[Ci sp]
+24.0 +21.9 88 +31 +31 очень
душно
1010.1 1010.0
03 16.01 В 1 4000 м 1/0
[Ci sp]
+24.6 +21.6 83 +31 +35 очень
душно
1012.8 1013.0 +23.2 +33.7
06 16.01 З 1 10 км 3/0
[Ci sp]
+31.4 +21.7 56 +40 +56 опасность
солнечного
удара
1013.1 1013.0
09 16.01 ЮЗ 2 10 км 1/0
[Ci fib]
+32.8 +23.0 56 +43 +54 опасность
перегрева
1009.6 1010.0
12 16.01 З 3 10 км 3/1 600 м
[Sc diur, vesp Ci sp]
+31.2 +23.7 64 +42 +43 опасность
перегрева
1008.7 1009.0 +33.0
15 16.01 штиль 0 4000 м 1/0
[Ci fib]
+27.8 +23.7 78 +38 +38 очень
душно
1010.6 1011.0
18 16.01 штиль 0 4000 м 3/3 600 м
[Sc diur, vesp]
+27.6 +24.4 83 +39 +39 очень
душно
1011.5 1012.0
21 16.01 штиль 0 4000 м 3/3 600 м
[Sc diur, vesp]
+26.4 +23.8 86 +36 +36 очень
душно
1010.6 1011.0
00 17.01 штиль 0 4000 м 3/1 600 м
[Sc diur, vesp Ci fib]
+25.0 +22.6 87 +33 +33 очень
душно
1010.3 1010.0
03 17.01 В 2 10 км 4/1 600 м
[Sc diur, vesp Ac trans]
+25.4 +20.8 76 +32 +35 очень
душно
1013.0 1013.0 +24.0 +33.0
06 17.01 штиль 0 10 км 10/3 600 м
[Sc diur, vesp Ac As]
+28.2 +20.7 64 +35 +39 очень
душно
1012.5 1013.0
09 17.01 ЮЗ 1 10 км 9/1 600 м
[Sc diur, vesp Ac As]
+31.0 +21.2 56 +39 +43 очень
душно
1010.1 1010.0
12 17.01 З 1 10 км 8/1 600 м
[Sc diur, vesp Ac trans Ci sp]
+29.6 +22.2 64 +38 +39 очень
душно
1009.0 1009.0 +31.4
15 17.01 штиль 0 4000 м 8/1 600 м
[Sc diur, vesp Ac trans Ci sp]
+27.0 +22.3 75 +35 +35 очень
душно
1010.7 1011.0
18 17.01 штиль 0 4000 м 6/1 600 м
[Sc diur, vesp Ac trans Ci sp]
+25.2 +21.9 82 +32 +32 очень
душно
1011.5 1012.0
21 17.01 штиль 0 4000 м 6/1 600 м
[Sc diur, vesp Ac trans Ci sp]
+24.4 +22.0 86 +31 +31 очень
душно
1010.7 1011.0
00 18.01 штиль 0 4000 м 6/1 600 м
[Sc diur, vesp Ac trans Ci sp]
+23.8 +21.1 85 +30 +30 очень
душно
1010.5 1011.0
03 18.01 штиль 0 4000 м 3/0
[Ci fib]
+25.0 +20.4 76 +31 +36 очень
душно
1012.6 1013.0 +22.9 +31.4
06 18.01 З 1 10 км ясно +31.2 +20.4 53 +38 +56 опасность
солнечного
удара
1012.1 1012.0
09 18.01 З 1 10 км ясно +32.0 +20.6 51 +39 +53 опасность
солнечного
удара
1009.0 1009.0
12 18.01 СЗ 1 10 км 1/0
[Ci fib]
+30.4 +21.8 60 +39 +39 очень
душно
1008.1 1008.0 +32.7
15 18.01 штиль 0 4000 м 1/0
[Ci fib]
+25.4 +22.7 85 +33 +33 очень
душно
1010.1 1010.0
18 18.01 штиль 0 4000 м 1/0
[Ci fib]
+25.4 +22.4 83 +33 +33 очень
душно
1011.3 1011.0
21 18.01 штиль 0 4000 м 1/0
[Ci fib]
+24.8 +22.4 87 +32 +32 очень
душно
1010.6 1011.0
00 19.01 В 1 4000 м 5/0
[Ci sp]
+23.4 +20.3 83 +31 +31 очень
душно
1010.9 1011.0
03 19.01 В 2 4000 м 4/4 600 м
[Sc diur, vesp]
+24.0 +17.6 67 +28 +30 душно 1013.3 1013.0 +22.7 +32.7
06 19.01 В 1 10 км 1/0
[Ci sp]
+31.4 +17.7 44 +36 +53 опасность
солнечного
удара
1012.8 1013.0
09 19.01 ЮЗ 2 10 км 3/1 600 м
[Sc diur, vesp Ci fib]
+32.6 +20.7 50 +40 +50 очень
душно
1009.4 1009.0
12 19.01 З 2 10 км 1/0
[Ci fib]
+31.6 +21.3 54 +39 +40 очень
душно
1008.8 1009.0 +33.2
15 19.01 штиль 0 4000 м 3/1 600 м
[Sc diur, vesp Ci sp]
+27.6 +22.3 73 +36 +36 очень
душно
1011.3 1011.0
18 19.01 штиль 0 4000 м 1/0
[Ci fib]
+25.4 +21.5 79 +32 +32 очень
душно
1011.6 1012.0
21 19.01 штиль 0 4000 м 1/0
[Ci fib]
+24.6 +22.2 87 +32 +32 очень
душно
1011.3 1011.0
00 20.01 ЮВ 2 4000 м 3/0
[Ci sp]
+23.0 +19.2 79 +29 +29 очень
душно
1011.5 1012.0
03 20.01 В 2 10 км 5/3 600 м
[Sc diur, vesp Ci fib]
+23.8 +17.7 69 +28 +31 душно 1013.7 1014.0 +22.0 +33.2
06 20.01 В 2 10 км 1/0
[Ci fib]
+31.4 +20.6 53 +38 +53 опасность
солнечного
удара
1013.4 1013.0
09 20.01 З 2 10 км 3/0
[Ci sp]
+32.4 +23.2 58 +43 +55 опасность
перегрева
1009.9 1010.0
12 20.01 З 2 10 км 4/0
[Ci sp]
+30.6 +23.4 65 +41 +42 опасность
перегрева
1009.1 1009.0 +33.2
15 20.01 З 1 4000 м 4/0 600 м
[Ci sp]
+27.4 +22.7 76 +36 +36 очень
душно
1010.6 1011.0
18 20.01 штиль 0 4000 м 4/0
[Ci sp]
+25.6 +22.3 82 +33 +33 очень
душно
1011.0 1011.0
21 20.01 штиль 0 4000 м 4/0 600 м
[Ci sp]
+24.2 +21.8 86 +31 +31 очень
душно
1010.0 1010.0

 

Местоположение метеостанции Kozhikode (Kerala, Индия): широта 11.25 долгота 75.78 высота над уровнем моря 5 м.

В архиве по умолчанию представлена погода в Kozhikode за последнюю неделю. Архивные данные за месяц целиком и за предыдущие месяцы, начиная с января 2011 года, Вы можете получить, выбрав интересующий диапазон дат из раскрывающегося списка и нажав кнопку "Ввод!".

Внимание! Время в таблицах - всемирное. Для получения местного времени необходимо прибавить поправку, которая в Kozhikode равна 5.5 ч.

Смотрите также архив погоды в соседних городах и на ближайших метеорологических станциях:

Погода в Karipur (Kerala, Индия) (23 км)
Погода в Cannanore (Kerala, Индия) (81 км)
Погода в Thrissur (Kerala, Индия) (94 км)
Погода в Udhagamandalam (Tamil Nadu, Индия) (105 км)
Погода в Palakkad (Kerala, Индия) (109 км)
Погода в Coonoor (Tamil Nadu, Индия) (112 км)
Погода в Madikeri (Karnataka, Индия) (130 км)
Погода в Kochi (Kerala, Индия) (140 км)
Погода в Coimbatore (Tamil Nadu, Индия) (141 км)
Погода в Chamarajnagar (Karnataka, Индия) (146 км)

Пояснения к столбцам:

Ветер - указаны скорость ветра в м/с - средняя за 10 мин, порывы в срок и между сроками (в фигурных скобках) и направление, откуда дует ветер: С - северный, СВ - северо-восточный, В - восточный, ЮВ - юго-восточный, Ю - южный, ЮЗ - юго-западный, З - западный, СЗ - северо-западный.
Видимость - горизонтальная дальность видимости в метрах или километрах. При видимости от 1 до 10 км при отсутствии осадков обычно наблюдается дымка, при ухудшении видимости до 1 км и менее - туман. В сухую погоду видимость может ухудшаться дымом, пылью или мглою.
Явления - указаны атмосферные явления, наблюдавшиеся в срок или в последний час перед сроком; фигурными скобками обозначены явления, наблюдавшиеся между сроками (за 1-3 часа до срока); квадратными скобками обозначены град или гололедные отложения с указанием их диаметра в мм.
Облачность - указаны через наклонную черту общая и нижняя облачность в баллах и высота нижней границы облаков в метрах; квадратными скобками обозначены формы облаков: Ci - перистые, Cs - перисто-слоистые, Cc - перисто-кучевые, Ac - высококучевые, As - высокослоистые, Sc - слоисто-кучевые, Ns - слоисто-дождевые, Cu - кучевые, Cb - кучево-дождевые. Подробнее классификацию облаков см. в Атласе облаков (PDF).
T - Температура воздуха - температура, измеренная на высоте 2 м над землей.
Td - Температура точки росы - температура, при понижении до которой содержащийся в воздухе водяной пар достигнет насыщения.
f - Относительная влажность воздуха - влажноcть воздуха, измеренная на высоте 2 м над землей.
Te - Эффективная температура - температура, которую ощущает одетый по сезону человек в тени. Характеристика душности погоды. При расчете учитывается влияние влажности воздуха и скорости ветра на теплоощущения человека.
Tes - Эффективная температура на солнце - температура, которую ощущает человек, с поправкой на солнечный нагрев. Характеристика знойности погоды. Зависит от высоты солнца над горизонтом, облачности и скорости ветра. Ночью, в пасмурную погоду, а также при ветре 12 м/с и более поправка равна нулю.
P - Атмосферное давление - приведенное к уровню моря атмосферное давление.
Po - Атмосферное давление - измеренное на уровне метеостанции атмосферное давление.
Tmin - Минимальная температура - минимум температуры воздуха на высоте 2 м над землей.
Tmax - Максимальная температура - максимум температуры воздуха на высоте 2 м над землей.
R - Количество осадков - Количество выпавших осадков за период времени, мм. При наведении курсора мыши на число - период времени, за который выпало указанное количество осадков.
R24 - Количество осадков - Количество выпавших осадков за 24 часа, мм.
S - Снежный покров - Высота снежного покрова, см. При наведении курсора мыши на число - состояние снежного покрова и степень покрытия местности в баллах.